Regional Weather Roundup
Issued by NWS Cleveland, OH

Home | Current Version | Previous Version | Text Only | Print | Product List | Glossary Off
Versions: 1 2 3 4 5 6 7 8 9 10 11 12 13 14 15 16 17 18 19 20 21 22 23 24 25 26 27 28 29 30 31 32 33 34 35 36 37 38 39 40 41 42 43 44 45 46 47 48 49 50

000
ASUS41 KCLE 262010
RWRCLE
OHIO REGIONAL WEATHER ROUNDUP
NATIONAL WEATHER SERVICE CLEVELAND, OH
400 PM EDT MON SEP 26 2016

NOTE: "FAIR" INDICATES FEW OR NO CLOUDS BELOW 12,000 FEET WITH NO
SIGNIFICANT WEATHER AND/OR OBSTRUCTIONS TO VISIBILITY.

OHZ001>008-015>018-024>027-034-035-043-044-262100-
   NORTHWEST OHIO

CITY           SKY/WX    TMP DP  RH WIND       PRES   REMARKS
DEFIANCE       SUNNY     69  41  36 W9G20     29.95F
FINDLAY        MOSUNNY   68  47  46 W17G23    29.95F
TOLEDO EXPRESS CLOUDY    68  46  45 SW20      29.93S
TOLEDO EXEC    MOSUNNY   67  47  48 W17       29.94S
LIMA           MOSUNNY   67  50  54 W13       29.97F
$$

OHZ009>014-019>023-028>033-038-089-262100-
   NORTHEAST OHIO

CITY           SKY/WX    TMP DP  RH WIND       PRES   REMARKS
CLE-HOPKINS    CLOUDY    67  59  75 SW15      29.95F
CLE-LAKEFRONT  CLOUDY    66  59  78 SW15      29.92F
CUY CO. ARPT   CLOUDY    64  61  88 W12       29.94S
LORAIN-ELYRIA  CLOUDY    64  56  75 W10       29.95S
ASHTABULA      LGT RAIN  63  62  97 SW9       29.93S
AKRON-CANTON   CLOUDY    63  58  83 W6        29.94F
WOOSTER        LGT RAIN  60  58  92 W10       29.96S
MANSFIELD      CLOUDY    63  57  81 W10G17    29.96F
YOUNGSTOWN     LGT RAIN  62  59  90 SW8       29.94F
$$

OHZ042-051>053-060>062-070>072-077>081-262100-
  SOUTHWEST OHIO

CITY           SKY/WX    TMP DP  RH WIND       PRES   REMARKS
CINC-COVINGTON PTSUNNY   67  53  61 W9        30.03F
CINC-LUNKEN    CLOUDY    68  55  63 VRB5      30.03F
HAMILTON       CLOUDY    68  49  50 W13       30.03F
DAYTON         CLOUDY    65  48  54 W15       30.02F
WRIGHT-PAT AFB MOSUNNY   67  50  53 W8        30.00F
DAYTON GENERAL CLOUDY    66  48  52 W8        30.01F
WILMINGTON     CLOUDY    66  56  70 W10G17    30.01F
$$

OHZ036-037-039>041-045>050-054>059-063>069-073>076-082>088-262100-
  CENTRAL AND SOUTHEAST OHIO

CITY           SKY/WX    TMP DP  RH WIND       PRES   REMARKS
COLUMBUS       CLOUDY    65  58  78 W14       29.98S
OSU AIRPORT    PTSUNNY   66  56  70 W12       29.98F
BOLTON FIELD   CLOUDY    64  57  77 W8        30.00F
RICKENBACK AFB CLOUDY    63  59  87 NW8       29.99S
NEWARK         CLOUDY    63  58  83 W13       29.97S
MARION         CLOUDY    65  50  58 W12       29.97F
LANCASTER      CLOUDY    64  59  83 NW9       29.99S
ZANESVILLE     CLOUDY    65  61  87 VRB5      29.96F
NEW PHILLY     LGT RAIN  65  61  87 W6        29.96F
$$




USA.gov is the U.S. government's official web portal to all federal, state and local government web resources and services.